TimeMST,TemperatureF,Dew PointF,Humidity,Sea Level PressureIn,VisibilityMPH,Wind Direction,Wind SpeedMPH,Gust SpeedMPH,PrecipitationIn,Events,Conditions,WindDirDegrees,DateUTC
12:53 AM,8.1,3.0,80,30.79,9.0,Calm,Calm,-,N/A,,Clear,0,2013-11-22 07:53:00
1:53 AM,3.9,-0.9,80,30.80,9.0,NW,3.5,-,N/A,,Clear,320,2013-11-22 08:53:00
2:53 AM,6.1,1.0,80,30.79,8.0,Calm,Calm,-,N/A,,Clear,0,2013-11-22 09:53:00
3:53 AM,3.9,-0.0,84,30.82,8.0,Calm,Calm,-,N/A,,Clear,0,2013-11-22 10:53:00
4:53 AM,3.9,-2.0,76,30.84,9.0,Calm,Calm,-,N/A,,Clear,0,2013-11-22 11:53:00
5:53 AM,6.1,1.0,80,30.85,8.0,Calm,Calm,-,N/A,,Clear,0,2013-11-22 12:53:00
6:53 AM,1.9,-2.0,83,30.88,8.0,East,3.5,-,N/A,,Clear,90,2013-11-22 13:53:00
7:53 AM,3.0,-2.0,80,30.89,8.0,Calm,Calm,-,N/A,,Clear,0,2013-11-22 14:53:00
8:53 AM,8.1,1.9,76,30.90,7.0,Calm,Calm,-,N/A,,Clear,0,2013-11-22 15:53:00
9:53 AM,12.9,6.1,74,30.89,10.0,Calm,Calm,-,N/A,,Clear,0,2013-11-22 16:53:00
10:53 AM,17.1,9.0,71,30.88,10.0,Calm,Calm,-,N/A,,Clear,0,2013-11-22 17:53:00
11:53 AM,21.0,10.0,63,30.85,10.0,NNW,3.5,-,N/A,,Clear,340,2013-11-22 18:53:00
12:53 PM,23.0,10.0,58,30.82,10.0,Variable,3.5,-,N/A,,Clear,0,2013-11-22 19:53:00
1:53 PM,27.0,10.0,49,30.80,10.0,Calm,Calm,-,N/A,,Clear,0,2013-11-22 20:53:00
2:53 PM,28.0,10.9,49,30.79,10.0,Calm,Calm,-,N/A,,Clear,0,2013-11-22 21:53:00
3:53 PM,28.0,12.0,51,30.79,10.0,NNW,3.5,-,N/A,,Clear,330,2013-11-22 22:53:00
4:53 PM,21.9,10.9,63,30.82,10.0,West,3.5,-,N/A,,Clear,260,2013-11-22 23:53:00
5:53 PM,21.0,10.9,65,30.82,9.0,SW,3.5,-,N/A,,Clear,230,2013-11-23 00:53:00
6:53 PM,19.9,10.0,65,30.84,10.0,SW,4.6,-,N/A,,Clear,230,2013-11-23 01:53:00
7:53 PM,18.0,10.0,71,30.84,10.0,SSW,3.5,-,N/A,,Clear,210,2013-11-23 02:53:00
8:53 PM,15.1,8.1,74,30.85,10.0,Calm,Calm,-,N/A,,Clear,0,2013-11-23 03:53:00
9:53 PM,15.1,8.1,74,30.84,10.0,Calm,Calm,-,N/A,,Clear,0,2013-11-23 04:53:00
10:53 PM,14.0,7.0,74,30.82,10.0,Calm,Calm,-,N/A,,Clear,0,2013-11-23 05:53:00
11:53 PM,12.0,7.0,80,30.82,10.0,Calm,Calm,-,N/A,,Clear,0,2013-11-23 06:53:00